Location: The C. Gantt Observatory
(33.6981°N, 81.6836°W)
Time: 11:37:02
(UTC-05:00)

Daily predictions for brighter satellites

Satellite Brightness Start Highest point End
(mag) Time Altitude Azimuth Time Altitude Azimuth Time Altitude Azimuth
Meteor 1-27 Rocket 4.1 18:31:10 10° N 18:37:05 78° W 18:42:59 10° S
OAO 2 Rocket 3.5 18:35:17 10° WSW 18:40:12 65° SSE 18:45:04 10° E
ORS 1 (USA 231) 4.2 18:39:48 10° WNW 18:42:15 68° SSW 18:44:42 10° ESE
Cosmos 2219 Rocket 3.1 18:38:56 10° NNW 18:44:27 54° WSW 18:49:54 10° S
COSMO-SKYMED 1 3.1 18:41:06 10° N 18:45:25 63° WNW 18:49:41 10° SSW
MOS 1 4.3 18:48:39 10° SSE 18:54:17 81° ENE 18:59:58 10° N
Cosmos 2227 Rocket 3.2 18:49:28 10° SW 18:54:55 49° WNW 19:00:24 10° N
FENGYUN 3A 3.8 18:50:12 10° SSE 18:55:35 85° WSW 19:01:02 10° NNW
SeaSat 1 4.0 18:53:06 10° E 18:56:02 16° NE 18:58:58 10° NNE
SJ-6B 4.2 18:55:17 10° ESE 18:57:48 17° ENE 19:00:21 10° NNE
Envisat 4.3 18:54:44 10° ESE 18:58:05 18° ENE 19:01:28 10° NNE
USA 215 3.3 18:52:18 10° NE 18:58:47 64° SE 19:05:14 10° SSW
Cosmos 2237 Rocket 2.3 18:54:31 10° NNW 19:00:10 84° WSW 19:05:47 10° SSE
Thor Agena Rocket 4.2 18:58:46 10° NE 19:03:11 30° E 19:07:34 10° SSE
Tiangong 2 1.9 19:00:52 10° NW 19:03:51 36° NNE 19:05:47 18° E
SL-16 R/B 2.6 18:58:47 10° N 19:04:05 39° ENE 19:09:21 10° SE
FREGAT/IRIS 3.3 19:01:58 10° SE 19:04:35 30° ENE 19:07:14 10° NNE
USA 32 4.5 19:00:09 10° SSE 19:04:56 38° E 19:09:44 10° NNE
Cosmos 1269 Rocket 4.5 19:01:07 10° SSE 19:05:58 38° E 19:10:50 10° NE
H-2A R/B 2.8 19:03:25 10° SSE 19:07:16 59° ENE 19:11:07 10° N
Cosmos 44 Rocket 4.2 19:02:52 10° N 19:07:23 32° NE 19:11:24 13° ESE
CZ-4 R/B 4.3 19:05:11 10° SSW 19:08:23 22° W 19:11:33 10° NW
Cosmos 2297 Rocket 3.5 19:03:33 10° SW 19:08:53 43° WNW 19:14:16 10° N
HJ-1C 4.4 19:06:47 10° SE 19:09:40 26° ENE 19:12:34 10° NNE
Cosmos 1674 Rocket 3.4 19:05:20 10° N 19:09:41 76° E 19:13:59 10° S
Meteor 1-14 Rocket 4.3 19:03:59 10° S 19:09:43 84° E 19:15:37 10° N
MOS 1-B Rocket 4.4 19:03:40 10° S 19:10:20 71° WSW 19:16:11 10° NNW
Cosmos 2034 Rocket 4.4 19:07:16 10° N 19:13:12 40° E 19:19:06 10° SSE
OE (NEXTSAT) 4.4 19:09:43 10° SW 19:13:14 63° SE 19:15:26 21° ENE
IUS-18 SRM-1 3.6 19:11:31 10° SW 19:13:18 20° S 19:15:54 10° SE
Cosmos 1908 Rocket 3.5 19:09:05 10° S 19:13:31 70° E 19:17:58 10° NNE
Okean 1 4.0 19:11:49 10° NNE 19:15:21 30° E 19:18:51 10° SE
Meteor 1-20 Rocket 4.2 19:10:56 10° S 19:16:35 79° E 19:22:22 10° N
Cosmos 1633 2.5 19:13:41 10° S 19:17:14 82° W 19:20:48 10° N
Okean 3 3.3 19:13:16 10° N 19:17:27 75° E 19:21:37 10° S
ERS-2 2.1 19:16:41 10° SSE 19:20:18 58° ENE 19:23:56 10° N
Cosmos 921 Rocket 3.9 19:18:00 10° N 19:21:57 29° ENE 19:23:43 22° ESE
H-2A R/B 4.3 19:21:52 10° SSW 19:24:39 11° S 19:26:38 10° SSE
CZ-2D R/B 4.0 19:22:37 19° ESE 19:24:39 31° ENE 19:28:08 10° N
ALOS 4.2 19:23:29 10° SSW 19:27:38 32° W 19:31:49 10° NNW
Cosmos 1812 3.4 19:25:19 10° NNW 19:29:07 58° W 19:32:54 10° S
CENTAUR R/B 2.9 19:24:30 10° SW 19:30:17 62° WNW 19:36:53 10° NNE
Cosmos 1602 3.8 19:33:09 10° S 19:36:58 54° E 19:40:47 10° NNE
Meteor 1-18 Rocket 4.1 19:31:32 10° N 19:37:09 86° E 19:42:41 10° S
Cosmos 44 3.3 19:33:23 10° NNW 19:38:31 82° ENE 19:43:34 11° SSE
Cosmos 2263 Rocket 3.7 19:35:27 10° SSE 19:37:15 17° SE 19:37:15 17° SE
Resurs 01 Rocket 3.3 19:42:38 19° NNE 19:42:38 19° NNE 19:44:20 10° NNE
Cosmos 1975 Rocket 3.2 19:40:19 10° N 19:44:39 50° E 19:46:31 30° SE
Lacrosse 5 3.7 19:44:33 10° WNW 19:48:53 29° WSW 19:53:11 10° S
Cosmos 1452 Rocket 4.1 19:44:40 10° NNW 19:49:49 59° WSW 19:54:57 10° S
Meteor 1-11 Rocket 3.8 19:46:10 10° SSE 19:51:28 48° E 19:56:52 10° NNE
Cosmos 1437 Rocket 3.1 19:47:47 10° SSW 19:51:47 69° W 19:55:52 10° N
Meteor 1-19 Rocket 4.3 19:47:05 10° N 19:52:27 50° E 19:54:50 31° SE
Iridium 4 Rocket 3.8 19:49:42 10° N 19:54:24 58° W 19:58:41 10° SSW
Geosat 3.9 19:51:12 19° NNE 19:54:49 71° ESE 19:59:48 10° SSW
Meteor 2-4 Rocket 4.4 19:50:33 10° N 19:54:53 34° NE 19:54:53 34° NE
Cosmos 2227 4.1 19:51:20 10° SSW 19:57:04 87° ESE 20:02:49 10° NNE
Gbstr 26 Del rocket 2.7 19:54:45 10° SW 19:58:27 73° NW 19:58:46 68° N
COSMOS 2455 3.0 19:52:48 10° S 19:58:33 49° ESE 19:59:33 44° E
CRYOSAT 2 4.4 19:54:57 10° N 19:59:49 81° W 20:04:40 10° S
Tsikada Rocket 4.0 19:56:25 10° S 20:02:49 85° W 20:09:16 10° N
OAO 2 Rocket 3.4 20:20:03 10° W 20:24:26 67° WNW 20:24:26 67° WNW
Okean 2 Rocket 4.1 20:24:37 10° SSW 20:28:48 45° W 20:33:02 10° N
SeaSat 1 2.8 20:32:53 60° WSW 20:33:03 61° WSW 20:37:57 10° NNW
Envisat 4.0 20:31:54 10° S 20:36:43 44° W 20:41:33 10° NNW
Sakura Rocket 4.5 20:41:31 10° WSW 20:47:28 59° S 20:47:28 59° S
SL-16 R/B 4.3 20:43:32 10° NW 20:47:52 23° W 20:52:11 10° SSW
USA 267 4.5 21:14:32 31° NNW 21:14:32 31° NNW 21:18:02 10° NNW
CZ-4C R/B 4.2 21:19:23 10° NNW 21:22:51 30° NNW 21:22:51 30° NNW
CZ-3C R/B 3.9 21:21:39 10° WSW 22:12:39 - ESE 21:25:18 36° SSW
